[[{"header":{"parameterUnit":"m.s-1","parameterCategory":1,"la1":30.2991,"la2":30.254,"lo1":-89.0895,"lo2":-89.0444,"dy":0.0017,"dx":0.0017,"nx":28,"ny":28,"refTime":"2025-03-17T21:00:00:Z","depth":0,"parameterNumber":2,"parameterNumberName":"U-component_of_WINDS"},"data":[0,0,0,0,0,0,0,0,0,0,0,0,0,0,0,0,0,0,0,0,0,0,0,0,0,0,0,0,0,0,0,0,0,0,0,0,0,0,0,0,0,0,0,0,0,0,0,0,0,0,0,0,0,0,0,0,0,0,2.0768,2.077,0,2.0944,2.0946,2.0948,2.0973,2.0972,2.097,2.0968,2.1155,2.1161,2.1168,0,0,0,0,0,0,0,0,0,0,0,0,0,2.046,2.0465,2.0768,2.077,2.0772,2.0943,2.0946,2.0948,2.0973,2.0971,2.097,2.0968,2.1153,2.116,2.1168,0,0,0,0,0,0,0,0,0,0,0,0,0,2.061,2.0467,2.0768,2.0805,2.0811,2.0943,2.0946,2.0949,2.0974,2.0971,2.0969,2.0967,2.115,2.116,2.1169,2.1278,0,0,2.1199,2.1203,0,0,0,0,0,0,0,0,2.0602,2.0622,2.0798,2.0803,2.0809,2.0934,2.0906,2.106,2.0975,2.0912,2.0968,2.0966,2.1084,2.1099,2.1137,2.1287,2.1295,2.12,2.1206,2.121,2.1213,0,0,0,0,0,0,0,2.0591,2.0614,2.0838,2.08,2.0807,2.0815,2.0834,2.0935,2.101,2.0917,2.092,2.094,2.1086,2.1128,2.1142,2.1298,2.1199,2.1208,2.1214,2.1218,2.1546,2.1548,0,0,0,0,0,0,2.0573,2.0605,2.0832,2.0843,2.0697,2.0823,2.0844,2.0896,2.1009,2.1023,2.0942,2.094,2.1112,2.113,2.1149,2.1284,2.121,2.1219,2.1224,2.1543,2.1546,2.1549,0,0,0,0,0,0,2.0567,2.0593,2.0825,2.0725,2.0755,2.0831,2.089,2.0901,2.0943,2.1027,2.1041,2.097,2.1111,2.1135,2.1245,2.129,2.1223,2.1232,2.1539,2.1544,2.1548,2.1554,0,0,0,0,0,0,2.0558,2.0591,2.0632,2.0726,2.076,2.0917,2.0892,2.0906,2.0959,2.0958,2.1057,2.1071,2.1111,2.1231,2.1255,2.1303,2.124,2.1536,2.1541,2.1547,2.1551,2.1558,2.1565,0,0,0,0,0,2.0546,2.0628,2.0634,2.0661,2.0813,2.092,2.094,2.0982,2.0962,2.1005,2.1059,2.1068,2.1281,2.1242,2.1269,2.1321,2.1533,2.154,2.1546,2.1547,2.1557,2.1565,0,0,0,0,0,0,2.054,2.0641,2.0648,2.0762,2.0832,2.0924,2.0979,2.0991,2.107,2.1067,2.1118,2.114,2.1248,2.1296,2.125,2.1432,2.1406,2.1418,2.1397,2.1407,2.1414,2.1401,2.1248,0,0,0,0,0,2.0551,2.0628,2.0713,2.0805,2.0839,2.0903,2.0951,2.0978,2.1053,2.1083,2.1145,2.122,2.1303,2.1358,2.144,2.1557,2.158,2.1606,2.1613,2.1619,2.1629,2.1695,2.1708,2.1571,2.1571,2.1571,0,0,2.0576,2.0641,2.0687,2.0805,2.0862,2.0942,2.0928,2.1013,2.1073,2.1097,2.1204,2.1252,2.1339,2.1453,2.1507,2.1496,2.1672,2.1627,2.1631,2.1639,2.1703,2.1716,2.1728,2.1575,2.1574,2.1574,0,0,2.0663,2.0719,2.0802,2.0859,2.0945,2.0986,2.1006,2.1096,2.1128,2.1236,2.1255,2.1329,2.1472,2.1532,2.1582,2.169,2.1702,2.1715,2.1754,2.1818,2.1829,2.1839,2.1878,2.1891,2.1725,2.1725,2.1725,0,2.0684,2.0803,2.0844,2.0928,2.098,2.1002,2.1087,2.1141,2.125,2.1287,2.1272,2.1452,2.1512,2.164,2.1666,2.1706,2.1731,2.1705,2.1823,2.1834,2.1844,2.1882,2.1896,2.1726,2.1726,2.1726,2.1726,0,2.0825,2.0907,2.0964,2.1066,2.1125,2.1209,2.1264,2.1319,2.134,2.1383,2.1493,2.1565,2.1662,2.1694,2.1717,2.1827,2.1817,2.1813,2.1788,2.1857,2.1894,2.1909,2.1728,2.1728,2.1727,2.1727,0,0,2.0914,2.1036,2.1056,2.1102,2.1198,2.1264,2.1349,2.1441,2.1488,2.1562,2.1636,2.1755,2.1751,2.1808,2.1837,2.1893,2.1974,2.1881,2.1884,2.1897,2.2101,2.2104,2.212,2.1982,2.1985,2.1987,2.2093,0,2.1012,2.1163,2.1202,2.1331,2.1409,2.143,2.1505,2.1573,2.1615,2.1688,2.1736,2.182,2.1808,2.1842,2.1898,2.1952,2.2016,2.1945,2.2053,2.2057,2.2031,2.2139,2.2143,2.224,2.2108,2.211,2.2112,0,2.1147,2.1222,2.1358,2.1443,2.1477,2.1543,2.1631,2.1699,2.1777,2.1804,2.1866,2.1889,2.1981,2.195,2.2078,2.2028,2.2075,2.2108,2.2113,2.2126,2.2089,2.2156,2.2272,2.2287,2.2135,2.2133,2.2132,0,2.1199,2.1333,2.1432,2.1471,2.1573,2.1619,2.1664,2.1739,2.1791,2.1868,2.1903,2.1991,2.2039,2.2107,2.2154,2.2126,2.2278,2.225,2.2304,2.2303,2.2337,2.2334,2.2463,2.2365,2.2364,2.2364,2.2364,0,2.1305,2.1388,2.1457,2.1518,2.1612,2.1656,2.1748,2.1794,2.186,2.1931,2.1956,2.2023,2.208,2.2156,2.2193,2.2294,2.2315,2.2341,2.235,2.234,2.2336,2.2372,2.2366,2.2368,2.2367,2.2366,2.2366,0,2.1379,2.1428,2.1538,2.1624,2.1648,2.1713,2.1788,2.1849,2.1891,2.1982,2.2005,2.2073,2.2163,2.2216,2.233,2.2355,2.2467,2.2473,2.244,2.2444,2.2495,2.249,2.2653,2.2676,2.2561,2.2562,2.2563,0,2.1444,2.1508,2.16,2.1649,2.1694,2.1772,2.1825,2.1871,2.1926,2.2018,2.2068,2.2159,2.2234,2.2376,2.2437,2.2524,2.2533,2.2584,2.2547,2.2534,2.2535,2.2531,2.2538,2.2591,2.2592,2.2593,2.2593,0,2.1555,2.1575,2.165,2.1733,2.1795,2.1864,2.1932,2.1971,2.2029,2.2089,2.218,2.2238,2.2353,2.2443,2.2535,2.2583,2.2599,2.2604,2.2622,2.2612,2.259,2.2603,2.2458,2.2601,2.26,2.26,2.2599,2.2599,2.1627,2.1685,2.1758,2.1841,2.1896,2.1959,2.202,2.2069,2.2145,2.2241,2.2264,2.2359,2.2435,2.256,2.261,2.2687,2.2679,2.2704,2.271,2.2716,2.2717,2.2577,2.2704,2.2704,2.2704,2.2703,2.2703,0,2.1739,2.1787,2.1862,2.1955,2.2021,2.2026,2.2102,2.2157,2.2239,2.2308,2.238,2.2485,2.2572,2.2639,2.2728,2.2777,2.2786,2.2799,2.2797,2.2808,2.2719,2.2696,2.279,2.279,2.279,2.279,2.279,2.279,2.1805,2.1903,2.1932,2.2058,2.2106,2.2198,2.2241,2.2299,2.2354,2.2469,2.254,2.2582,2.2651,2.2745,2.2826,2.2843,2.2876,2.2888,2.2907,2.2823,2.2814,2.2805,2.2783,2.2894,2.2894,2.2989,2.2989,2.299]},{"header":{"parameterUnit":"m.s-1","parameterCategory":1,"la1":30.2991,"la2":30.254,"lo1":-89.0895,"lo2":-89.0444,"dy":0.0017,"dx":0.0017,"nx":28,"ny":28,"refTime":"2025-03-17T21:00:00:Z","depth":0,"parameterNumber":3,"parameterNumberName":"V-component_of_WINDS"},"data":[0,0,0,0,0,0,0,0,0,0,0,0,0,0,0,0,0,0,0,0,0,0,0,0,0,0,0,0,0,0,0,0,0,0,0,0,0,0,0,0,0,0,0,0,0,0,0,0,0,0,0,0,0,0,0,0,0,0,4.64,4.6401,0,4.6509,4.651,4.6511,4.6535,4.6534,4.6533,4.6532,4.6637,4.664,4.6644,0,0,0,0,0,0,0,0,0,0,0,0,0,4.6209,4.6213,4.64,4.6402,4.6403,4.6508,4.651,4.6511,4.6535,4.6534,4.6533,4.6532,4.6636,4.664,4.6644,0,0,0,0,0,0,0,0,0,0,0,0,0,4.6302,4.6214,4.64,4.6428,4.6431,4.6508,4.651,4.6512,4.6535,4.6534,4.6533,4.6532,4.6634,4.6639,4.6644,4.67,0,0,4.666,4.6663,0,0,0,0,0,0,0,0,4.6297,4.6309,4.6422,4.6426,4.643,4.6507,4.6481,4.6574,4.6535,4.6495,4.6532,4.6531,4.6594,4.6602,4.6625,4.6705,4.6709,4.6661,4.6664,4.6666,4.6668,0,0,0,0,0,0,0,4.629,4.6304,4.6443,4.6424,4.6428,4.6433,4.6445,4.6499,4.6549,4.6499,4.6501,4.6514,4.6596,4.662,4.6628,4.6711,4.6661,4.6665,4.6669,4.6671,4.6843,4.6844,0,0,0,0,0,0,4.628,4.6299,4.6439,4.6446,4.6359,4.6437,4.6451,4.6483,4.6549,4.6558,4.6514,4.6514,4.6612,4.6622,4.6631,4.6702,4.6666,4.6671,4.6674,4.6842,4.6843,4.6845,0,0,0,0,0,0,4.6276,4.6292,4.6435,4.6373,4.6392,4.6442,4.6478,4.6486,4.651,4.6561,4.657,4.653,4.6611,4.6624,4.6684,4.6706,4.6674,4.6678,4.684,4.6842,4.6844,4.6843,0,0,0,0,0,0,4.627,4.629,4.6313,4.6374,4.6395,4.6487,4.648,4.6489,4.652,4.6521,4.6578,4.6586,4.6611,4.6676,4.6689,4.6713,4.6682,4.6838,4.6841,4.6843,4.6841,4.6845,4.6848,0,0,0,0,0,4.6263,4.6306,4.6314,4.6331,4.6424,4.6488,4.65,4.653,4.6522,4.6544,4.6577,4.6584,4.6702,4.6681,4.6696,4.6722,4.6837,4.684,4.6843,4.684,4.6844,4.6848,0,0,0,0,0,0,4.6243,4.6314,4.6324,4.6388,4.6432,4.6492,4.6521,4.6533,4.6578,4.6577,4.661,4.6622,4.668,4.6707,4.6683,4.678,4.6769,4.6775,4.6761,4.6765,4.6769,4.6761,4.6687,0,0,0,0,0,4.6247,4.6295,4.6353,4.6404,4.6426,4.647,4.6499,4.6518,4.6564,4.6582,4.6619,4.6662,4.6709,4.6738,4.6784,4.6845,4.6858,4.687,4.6874,4.6876,4.6881,4.6918,4.6924,4.6855,4.6855,4.6855,0,0,4.6254,4.6299,4.6326,4.6402,4.6438,4.6486,4.6485,4.6534,4.657,4.6589,4.6648,4.6677,4.6727,4.6788,4.6817,4.6812,4.6904,4.688,4.6882,4.6886,4.6922,4.6928,4.6934,4.6858,4.6857,4.6857,0,0,4.6292,4.633,4.6378,4.6416,4.6472,4.6501,4.6513,4.6572,4.6593,4.6653,4.6669,4.6711,4.679,4.6826,4.6854,4.6908,4.6917,4.6922,4.6939,4.6974,4.698,4.6985,4.7005,4.7012,4.6927,4.6927,4.6927,0,4.6292,4.6367,4.64,4.6451,4.6484,4.6506,4.6555,4.6589,4.6656,4.6678,4.6672,4.6774,4.6809,4.688,4.6894,4.6915,4.693,4.6915,4.6976,4.6982,4.6987,4.7007,4.7014,4.6927,4.6927,4.6927,4.6927,0,4.6366,4.6417,4.6448,4.6517,4.6553,4.6602,4.6642,4.6675,4.6692,4.6721,4.6784,4.6827,4.6883,4.6901,4.6916,4.6975,4.697,4.697,4.6959,4.6993,4.7012,4.702,4.6928,4.6927,4.6927,4.6927,0,0,4.6392,4.6481,4.6492,4.6524,4.659,4.6629,4.6679,4.6737,4.6764,4.681,4.6853,4.6921,4.6923,4.6955,4.6975,4.7005,4.7048,4.7002,4.7004,4.701,4.7116,4.7116,4.7124,4.7054,4.7055,4.7057,4.7112,0,4.6438,4.6531,4.6564,4.664,4.6688,4.6712,4.6756,4.68,4.6829,4.6873,4.6904,4.6953,4.695,4.6971,4.7002,4.7036,4.7069,4.7032,4.7093,4.7095,4.7081,4.7134,4.7134,4.7184,4.712,4.7121,4.7122,0,4.6504,4.6555,4.6636,4.6698,4.672,4.6759,4.6815,4.6857,4.6908,4.6927,4.6965,4.6984,4.7036,4.7023,4.7096,4.707,4.7097,4.7117,4.712,4.7127,4.7111,4.7143,4.72,4.7208,4.7134,4.7133,4.7132,0,4.6516,4.6605,4.6666,4.6692,4.6766,4.6793,4.6824,4.6874,4.6908,4.6956,4.6978,4.7031,4.706,4.7101,4.7133,4.712,4.7204,4.7192,4.7221,4.722,4.7237,4.7235,4.73,4.7253,4.7253,4.7253,4.7253,0,4.6564,4.6613,4.6673,4.671,4.6767,4.6804,4.6858,4.689,4.6935,4.6979,4.7001,4.7041,4.7081,4.7126,4.7151,4.7209,4.7221,4.7238,4.7244,4.7236,4.7234,4.7255,4.7252,4.7255,4.7255,4.7254,4.7254,0,4.6587,4.6629,4.6698,4.6763,4.6781,4.6819,4.6874,4.6911,4.6943,4.6998,4.7013,4.7061,4.7116,4.7152,4.7221,4.7238,4.7301,4.7306,4.7284,4.7288,4.7315,4.7312,4.7395,4.7408,4.7352,4.7352,4.7353,0,4.6615,4.6655,4.6725,4.6758,4.6791,4.6841,4.6877,4.6915,4.6951,4.7014,4.7043,4.71,4.7147,4.7233,4.7273,4.7326,4.7333,4.7359,4.7341,4.7333,4.7335,4.7332,4.7337,4.7361,4.7361,4.7362,4.7362,0,4.6661,4.6681,4.6732,4.6792,4.6834,4.6882,4.6929,4.6954,4.7001,4.7039,4.7097,4.7134,4.7207,4.7263,4.732,4.7351,4.7364,4.7368,4.7377,4.737,4.7357,4.7365,4.7293,4.7365,4.7365,4.7365,4.7365,4.7364,4.6688,4.6725,4.6782,4.6839,4.688,4.6925,4.6964,4.7002,4.7051,4.7115,4.7135,4.7195,4.7246,4.7326,4.7357,4.7404,4.7402,4.7415,4.7419,4.7422,4.7423,4.7349,4.7415,4.7415,4.7415,4.7414,4.7414,0,4.6736,4.6775,4.6827,4.6896,4.694,4.6953,4.7007,4.7043,4.7097,4.7145,4.7192,4.7259,4.7315,4.7361,4.7417,4.7446,4.7454,4.746,4.7458,4.7465,4.7421,4.7408,4.7453,4.7453,4.7453,4.7453,4.7453,4.7453,4.6767,4.6831,4.6857,4.6942,4.698,4.7041,4.7071,4.7113,4.7152,4.7227,4.7274,4.7305,4.7352,4.7414,4.7465,4.7477,4.7497,4.7501,4.7515,4.7472,4.7468,4.7464,4.7452,4.7505,4.7505,4.7555,4.7556,4.7556]}]]